Effective Sunday, March 17, 2024, the National Weather Service National Data Buoy Center will discontinue its Dial-A-Buoy Interactive Voice Response system. For more information, see Service Change Notice 24-06 (PDF).

Station 44029 - Buoy A01 - Massachusetts Bay Image indicating link to RSS feed of recent meteorological observations for station 44029


Conditions at 44029 as of
(1:04 am EST)
0604 GMT on 03/02/2024:
     

Click on the graph icon in the table below to see a time series plot of the last five days of that observation.

5-day plot - Wind Direction Wind Direction (WDIR): SW ( 230 deg true )
5-day plot - Wind Speed Wind Speed (WSPD): 15.5 kts
5-day plot - Wind Gust Wind Gust (GST): 19.4 kts
5-day plot - Wave Height Wave Height (WVHT): 3.3 ft
5-day plot - Dominant Wave Period Dominant Wave Period (DPD): 4 sec
5-day plot - Atmospheric Pressure Atmospheric Pressure (PRES):30.54 in
5-day plot - Air Temperature Air Temperature (ATMP): 37.6 °F
5-day plot - Water Temperature Water Temperature (WTMP): 39.7 °F
5-day plot - Salinity Salinity (SAL): 31.10 psu
5-day plot - Visibility Visibility (VIS) (0 to 1.6 nmi): 1.6 nmi
5-day plot - Wind Chill Wind Chill (CHILL): 27.9 °F
5-day plot - Wind Speed at 10 Meters Wind Speed at 10 meters (WSPD10M): 17.5 kts
5-day plot - Wind Speed at 20 Meters Wind Speed at 20 meters (WSPD20M): 19.4 kts
5-day plot -  Wind Speed, Wind Gust and Atmospheric Pressure Combined plot of Wind Speed, Gust, and Air Pressure
Previous observations
TIME
(EST)
5-day plot - Wind Direction
WDIR
 
5-day plot - Wind Speed
WSPD
kts
5-day plot - Wind Gust
GST
kts
5-day plot - Wave Height
WVHT
ft
5-day plot - Dominant Wave Period
DPD
sec
5-day plot - Average Wave Period
APD
sec
5-day plot - Mean Wave Direction
MWD
 
5-day plot - Atmospheric Pressure
PRES
in
5-day plot - Pressure Tendency
PTDY
in
5-day plot - Air Temperature
ATMP
°F
5-day plot - Water Temperature
WTMP
°F
5-day plot - Dew Point
DEWP
°F
5-day plot - Salinity
SAL
psu
5-day plot - Visibility
VIS
nmi
5-day plot - Tide (above MLLW)
TIDE
ft
2024-03-02 12:04 am SW 17.5 21.4 3.3 4--30.54- 37.8 39.7- 31.10 1.6-
2024-03-01 11:04 pm SW 17.5 21.4 3.3 4--30.54- 37.9 39.7- 31.20 1.6-
2024-03-01 10:04 pm SW 19.4 25.3 3.3 4--30.54- 37.9 39.7- 31.10 1.6-
2024-03-01 09:04 pm SW 19.4 23.3 3.3 4--30.55- 38.3 39.7- 31.20 1.6-
2024-03-01 08:04 pm SW 17.5 21.4 3.0 4--30.55- 39.0 39.7- 31.20 1.6-
2024-03-01 07:04 pmSSW 17.5 23.3 2.3 3--30.55- 39.4 39.9- 31.20 1.6-
2024-03-01 06:04 pm SW 11.7 13.6 2.3 4--30.54- 41.0 39.9- 31.20 1.6-
2024-03-01 05:04 pm SW 13.6 17.5 2.6 4--30.52- 40.5 40.1- 31.20 1.6-
2024-03-01 04:04 pm SW 17.5 19.4 2.6 4--30.52- 39.7 39.9- 31.20 1.6-
2024-03-01 03:04 pm SW 15.5 19.4 2.6 4--30.53- 38.1 39.9- 31.20 1.6-
2024-03-01 02:04 pm SW 15.5 21.4 2.6 4--30.54- 36.3 39.9- 31.20 1.6-
2024-03-01 01:04 pm SW 17.5 23.3 2.3 4--30.56- 34.0 40.1- 31.20 1.6-
2024-03-01 12:04 pm SW 15.5 21.4 2.0 3--30.58- 31.8 39.9- 31.20 1.6-
2024-03-01 11:04 am SW 13.6 17.5 1.3 3--30.62- 30.0 39.9- 31.20 1.6-
2024-03-01 10:04 am SW 9.7 13.6 1.3 11--30.63- 27.3 39.9- 31.20 1.6-
2024-03-01 09:04 amWSW 7.8 11.7 1.3 4--30.63- 25.7 39.7- 31.20 1.6-
2024-03-01 08:04 am W 1.9 5.8 1.3 4--30.62- 26.2 39.9- 31.20 1.6-
2024-03-01 07:04 am NW 7.8 9.7 1.3 5--30.60- 24.3 39.7- 31.20 1.5-
2024-03-01 06:04 am N 9.7 15.5 1.6 5--30.57- 23.2 39.7- 31.20 1.6-
2024-03-01 05:04 amNNW 13.6 17.5 2.0 3--30.54- 24.4 39.7- 31.20 1.6-
2024-03-01 04:04 am NW 17.5 23.3 2.0 3--30.50- 25.5 39.7- 31.20 1.6-
2024-03-01 03:04 am NW 15.5 19.4 2.0 4--30.46- 26.2 39.7- 31.20 1.6-
2024-03-01 02:04 amWNW 17.5 23.3 2.6 4--30.43- 27.1 39.7- 31.20 1.6-

Disclaimer: Ocean current directions are reported to the nearest 10 degrees and speeds are measured to the nearest whole centimeter per second.

Ocean Current Data for 44029

Unit of Measure:   Time Zone:   
1:04 am EST12:04 am EST11:04 pm EST
Depth
ft
Dir
°
Speed
kts
Dir
°
Speed
kts
Dir
°
Speed
kts
7 170 0.25120 0.14180 0.08
33 170 0.35180 0.39170 0.25
46 180 0.33190 0.37190 0.25
59 190 0.27200 0.33210 0.27
72 210 0.21220 0.29230 0.23
85 240 0.21230 0.27240 0.23
98 240 0.19230 0.27250 0.23
112 240 0.14240 0.29250 0.23
125 270 0.14240 0.27260 0.21
138 290 0.14260 0.21270 0.23
151 290 0.14280 0.19280 0.19
164 260 0.17280 0.17290 0.21
177 250 0.23280 0.17290 0.21
190 250 0.27270 0.19270 0.21

Previous (up to 48) reports of ocean current data for 44029

Ocean Current Stick Plots are available in metric units only:

All Instruments - 1-day plot - ocean current 1-day plot     3-day plot - ocean current 3-day plot     5-day plot - ocean current 5-day plot     


Ocean Conditions at 44029 as of
(1:04 am EST)
0604 GMT on 03/02/2024:

These oceanographic data are displayed in rounded times.

     

Click on the graph icon in the table below to see a time series plot of the last five days of that observation.

Depth (DEPTH): 3.3 ft
5-day plot - Ocean Temperature Ocean Temperature (OTMP):39.74 °F
5-day plot - Salinity Salinity (SAL):31.10 psu
Previous observations
TIME
(EST)
DEPTH
ft
5-day plot - Ocean Temperature
OTMP
°F
5-day plot - Conductivity
COND
mS/cm
5-day plot - Salinity
SAL
psu
5-day plot - Oxygen Concentration
O2%
%
5-day plot - Oxygen Concentration
O2PPM
ppm
5-day plot - Chlorophyll
CLCON
ug/l
5-day plot - Turbidity
TURB
FTU
5-day plot - pH
PH
 
5-day plot - Eh
EH
mv
2024-03-02 12:04 am 3.339.74-31.10------
2024-03-01 11:04 pm 3.339.74-31.20------
2024-03-01 10:04 pm 3.339.74-31.10------
2024-03-01 09:04 pm 3.339.74-31.20------
2024-03-01 08:04 pm 3.339.74-31.20------
2024-03-01 07:04 pm 3.339.92-31.20------
2024-03-01 06:04 pm 3.339.92-31.20------
2024-03-01 05:04 pm 3.340.10-31.20------
2024-03-01 04:04 pm 3.339.92-31.20------
2024-03-01 03:04 pm 3.339.92-31.20------
2024-03-01 02:04 pm 3.339.92-31.20------
2024-03-01 01:04 pm 3.340.10-31.20------
2024-03-01 12:04 pm 3.339.92-31.20------
2024-03-01 11:04 am 3.339.92-31.20------
2024-03-01 10:04 am 3.339.92-31.20------
2024-03-01 09:04 am 3.339.74-31.20------
2024-03-01 08:04 am 3.339.92-31.20------
2024-03-01 07:04 am 3.339.74-31.20------
2024-03-01 06:04 am 3.339.74-31.20------
2024-03-01 05:04 am 3.339.74-31.20------
2024-03-01 04:04 am 3.339.74-31.20------
2024-03-01 03:04 am 3.339.74-31.20------
2024-03-01 02:04 am 3.339.74-31.20------